Regional Weather Roundup
Issued by NWS Charleston, SC

Current Version | Previous Version | Graphics & Text | Print | Product List | Glossary On
Versions: 1 2 3 4 5 6 7 8 9 10 11 12 13 14 15 16 17 18 19 20 21 22 23 24 25 26 27 28 29 30 31 32 33 34 35 36 37 38 39 40 41 42 43 44 45 46 47 48 49 50
000
ASUS42 KCHS 030712
RWRCHS

REGIONAL WEATHER ROUNDUP
NATIONAL WEATHER SERVICE CHARLESTON SC
300 AM EDT WED JUN 03 2015

NOTE: "FAIR" INDICATES FEW OR NO CLOUDS BELOW 12,000 FEET WITH NO
SIGNIFICANT WEATHER AND/OR OBSTRUCTIONS TO VISIBILITY.

NOT ALL STATIONS ARE QUALITY CONTROLLED BY THE NATIONAL
WEATHER SERVICE. USE DATA WITH CAUTION...ESPECIALLY
DEWPOINT OBSERVATIONS.

SCZ027-030-031-034>040-042>050-030800-
...SOUTHEAST SOUTH CAROLINA...

CITY           SKY/WX    TMP DP  RH WIND       PRES   REMARKS
N CHARLESTON   TSTM      71  67  87 N6        29.94F
WATERFRONT PAR   N/A     75  70  84 VRB3      29.91F
MOUNT PLEASANT LGT RAIN  73  72  94 NW5       29.94F
JOHNS ISLAND   TSTM      72  70  94 W14       29.97R
PINOPOLIS      NOT AVBL
MONCKS CORNER  TSTM      70  66  88 CALM      29.95F
SUMMERVILLE    FAIR      68  68 100 CALM      29.95F
BEAUFORT MCAS  CLOUDY    71  69  93 CALM      29.94F THUNDER
BEAUFORT ARPT  FAIR      72  70  94 CALM      29.94F
HILTON HEAD IS   N/A    N/A N/A N/A MISG        N/A
WALTERBORO     PTSUNNY   68  66  94 E3        29.95F THUNDER
ALLENDALE      CLOUDY    68  68 100 CALM      29.95F

...SOUTHERN MIDLANDS AND PEE DEE...

CITY           SKY/WX    TMP DP  RH WIND       PRES   REMARKS
GEORGETOWN     NOT AVBL
KINGSTREE      NOT AVBL
ORANGEBURG     CLOUDY    68  66  93 CALM      29.95F
BARNWELL       FAIR      66  66 100 NW3       29.97F
AIKEN          PTSUNNY   66  59  77 CALM      30.00F
MANNING        PTSUNNY   64  63  94 CALM      29.97S
COLUMBIA       CLOUDY    69  65  86 CALM      29.94F
SUMTER         CLOUDY    65  62  87 E5        29.95F
FLORENCE       CLOUDY    67  65  93 SE5       29.97F
MYRTLE BEACH   CLOUDY    70  63  78 N20       29.97F THUNDER
N MYRTLE BEACH LGT RAIN  68  65  90 N7        29.97F

$$

GAZ063-065-086>088-099>101-113>116-118-119-134>141-150-030800-
...SOUTHEAST GEORGIA...

CITY           SKY/WX    TMP DP  RH WIND       PRES   REMARKS
SAVANNAH ARPT  CLOUDY    70  67  90 CALM      29.95F
HUNTER AAF     CLOUDY    71  70  96 W5        29.93F
FORT STEWART   CLOUDY    72  65  80 S2        29.92F
STATESBORO     CLOUDY    69  32  25 CALM      29.94F
SYLVANIA       CLOUDY    68  68  98 CALM      29.94F
CLAXTON        FAIR      66  66 100 CALM      29.94F

...CSRA...CENTRAL AND FAR SOUTHEAST GEORGIA...

CITY           SKY/WX    TMP DP  RH WIND       PRES   REMARKS
THOMSON        CLOUDY    70  70  99 N5        30.03S
AUGUSTA-BUSH   CLOUDY    67  66  97 CALM      29.95F
AUGUSTA-DANIEL CLOUDY    71  65  81 N6        29.97F THUNDER
SWAINSBORO     FAIR     N/A N/A N/A CALM      29.95F
VIDALIA        CLOUDY    70  68  94 CALM      29.96S
EASTMAN        FAIR      69  69 100 S3        29.97F
HAZLEHURST     FAIR      71  71 100 NW5       29.94S
ALMA           CLOUDY    69  68  96 CALM      29.95F
WAYCROSS       CLOUDY    70  69  98 S3        29.95F
JESUP          LGT RAIN  72  70  94 CALM      29.95F
BAXLEY         FAIR      70  70 100 S3        29.94F
BRUNSWICK      CLOUDY    68  68 100 CALM      29.95F
SAINT SIMONS   NOT AVBL

$$

SCZ027-028-034-036>038-045-046-048>050-GAZ119-141-030800-
...LAKE AND SUPPLEMENTAL COASTAL OBSERVATIONS...

STATION/POSITION TIME  TEMP    WIND        PRES    WAVE   SWELL
                       AIR SEA DIR/SP/G            HT/PER HT/PER/DIR
                 (UTC) (F)     (DEG/KT/KT) (MB)    (FT/S) (FT/S/D)
UPR LAKE MARION  NOT AVBL
WINYAH BAY       NOT AVBL
LAKE MURRAY      0600   71     220/  3/  6 1014.9S
ACE BASIN NERRS  NOT AVBL
FORT PULASKI     0600   74 81              1014.8F
SAPELO ISLAND    0600   73     200/  7     1015.0S

$$

ANZ835-935-AMZ111-154-330-350-352-354-370-450-454-472-030800-
...C-MAN AND BUOY OBSERVATIONS...

STATION/POSITION TIME  TEMP    WIND        PRES    WAVE   SWELL
                       AIR SEA DIR/SP/G            HT/PER HT/PER/DIR
                 (UTC) (F)     (DEG/KT/KT) (MB)    (FT/S) (FT/S/D)
BUOY 41004       0650   74 80  180/  4/  6 1014.5S   3/ 8   2/ 8
BUOY 41008       0650   77 79  220/ 10/ 12 1014.2F   2/ 8   2/100/ 8
FOLLY BEACH CMAN 0700   73     270/ 10/ 15 1014.6R
CAPERS NEARSHORE 0608   79     230/ 10/ 14 1014.4F
FRIPP NEARSHORE  0600   79     250/ 16/ 17 1013.8F


STATION/POSITION TIME  TEMP    WIND        PRES    WAVE   SWELL
                       AIR SEA DIR/SP/G            HT/PER HT/PER/DIR
                 (UTC) (F)     (DEG/KT/KT) (MB)    (FT/S) (FT/S/D)
5E ST. MARYS GA  0621      80                N/A     2/ 9
FRYING PAN BUOY  0650   79 77  180/ 10/ 19 1015.2F   3/ 8   2/110/ 8
BUOY 41025       0650   74 80  280/ 12/ 16 1015.6F   3/ 8   2/100/ 8
CAPE LOOKOUT NC  0700   76      80/  6/  7 1014.9F
BUOY 41002       0650   77 76  180/  8/ 10 1016.4F   3/ 8   3/110/ 8
BUOY 41010       0620   79 80  140/  4/  6 1015.1F
ST AUGUSTINE FL  0700   70 76  270/  3/  4 1015.7R


$$



USA.gov is the U.S. government's official web portal to all federal, state and local government web resources and services.